Home   Weather   São Paulo   Past weeks

Flag for Brazil Past Weather in São Paulo, São Paulo, Brazil — Yesterday and Last 2 Weeks

75 °F

Thundershowers. Passing clouds.

Feels Like: 77 °F
Forecast: N/A
Wind: 5 mph from North

Location: Sao Paulo Airport

Current Time: Oct 20, 2016 at 7:33:17 PM

Latest Report: Oct 20, 2016 at 7:00 PM

Visibility: N/A

Pressure: 29.92 "Hg (27.40 "Hg at 765m altitude)

Humidity: 74%

Dew Point: 66 °F

Location of São PauloLocation

Past Weather in São Paulo — Graph


São Paulo Temperature Yesterday

Maximum temperature yesterday: 95 °F (at 3:00 PM)
Minimum temperature yesterday: 68 °F (at 1:00 AM)
Average temperature yesterday: 80 °F

High & Low Weather Summary for the Past Weeks

High95 °F (Oct 19, 3:00 PM)94% (Oct 10, 6:00 PM)30.30 "Hg (Oct 10, 6:00 PM)
Low55 °F (Oct 7, 4:03 AM)26% (Oct 19, 3:00 PM)29.71 "Hg (Oct 6, 2:00 PM)
Average70 °F71%30.05 "Hg
* Reported Oct 5 5:00 PM — Oct 20 6:00 PM, São Paulo, Weather by CustomWeather, © 2016

Note: Actual official high and low records may vary slightly from our data, if they occured in-between our weather recording intervals... More about our weather records


São Paulo Weather History for the Previous 24 Hours

Scroll right to see more
Time TempWeatherWind HumidityBarometerVisibility
6:00 PM
Thu, Oct 20
73 °FThunderstorms. Partly sunny.8 mph74%29.89 "HgN/A
5:00 PM75 °FStrong thunderstorms. Broken clouds.12 mph74%29.89 "Hg2 mi
4:00 PM90 °FPartly sunny.6 mph36%29.86 "HgN/A
3:00 PM91 °FSunny.6 mph36%29.89 "Hg10 mi
2:00 PM90 °FSunny.5 mph38%29.95 "Hg10 mi
1:00 PM86 °FSunny.7 mph43%29.98 "Hg10 mi
12:00 PM84 °FSunny.8 mph43%29.98 "Hg10 mi
11:00 AM79 °FSunny.10 mph58%29.98 "Hg10 mi
10:00 AM77 °FSunny.8 mph61%29.98 "Hg10 mi
9:00 AM73 °FSunny.10 mph74%29.98 "Hg10 mi
8:00 AM70 °FSunny.9 mph83%30.01 "Hg10 mi
7:00 AM70 °FThunderstorms. Scattered clouds.9 mph83%30.04 "Hg5 mi
6:00 AM68 °FLight rain. Overcast.15 mph88%30.01 "Hg2 mi
5:00 AM70 °FMostly cloudy.12 mph83%29.98 "HgN/A
4:04 AM70 °FMostly cloudy.13 mph83%29.98 "HgN/A
4:00 AM70 °FMostly cloudy.13 mph83%29.98 "HgN/A
3:00 AM70 °FMostly cloudy.9 mph83%29.98 "HgN/A
2:00 AM70 °FMostly cloudy.12 mph83%29.98 "HgN/A
1:00 AM72 °FMostly cloudy.10 mph83%30.01 "HgN/A
12:00 AM72 °FPartly cloudy.9 mph83%30.01 "HgN/A
11:00 PM
Wed, Oct 19
72 °FPassing clouds.15 mph83%30.01 "HgN/A
10:00 PM81 °FClear.5 mph62%29.98 "Hg10 mi
9:00 PM82 °FThundershowers. Passing clouds.9 mph48%29.95 "HgN/A
8:00 PM84 °FClear.9 mph48%29.92 "Hg10 mi
7:00 PM86 °FSunny.10 mph46%29.89 "Hg10 mi
Weather by CustomWeather, © 2016

See weather overviewHow to use our weather pages